Location: Downe
(51.3167°N, 0.0500°E)
Time: 16:24:14
(UTC+00:00)

Meteor 1-31 Rocket - Pass Details

Date: 17 November 2019
Orbit: 521 x 547 km, 97.6° (Epoch: 06 December)

Event Time Altitude Azimuth Distance (km) Brightness Sun altitude
Rises 05:28:24 0° 7° (N) 2,677 6.3 -17.2°
Reaches altitude 10° 05:30:37 10° 358° (N) 1,786 5.3 -16.8°
Maximum altitude 05:34:08 35° 292° (WNW) 877 3.3 -16.3°
Enters shadow 05:34:49 32° 269° (W) 926 3.4 -16.2°
